Watertown, NY

2:51 PM EST on November 17, 2019 (GMT -0500)
Watertown International

Weather History for KART - September, 2019

Change the Weather History Date:

Tuesday, September 10, 2019

  Actual Average Record
Temperature  
Mean Temperature 57 °F 62 °F  
Max Temperature 74 °F 73 °F 90 °F (1959)
Min Temperature 39 °F 51 °F 34 °F (1973)
Degree Days  
Heating Degree Days 8 5  
Month to date heating degree days 50 38  
Since 1 July heating degree days 79 110  
Cooling Degree Days 0 2  
Month to date cooling degree days 4 20  
Year to date cooling degree days 325 344  
Growing Degree Days 6 (Base 50)    
Moisture  
Dew Point 53 °F    
Average Humidity 77    
Maximum Humidity 100    
Minimum Humidity 53    
Precipitation  
Precipitation 0.13 in 0.11 in 1.71 in (1981)
Month to date precipitation 2.05 1.08  
Year to date precipitation 30.14 22.88  
Sea Level Pressure  
Sea Level Pressure 30.23 in    
Wind  
Wind Speed 4 mph (South)    
Max Wind Speed 13 mph    
Max Gust Speed 19 mph    
Visibility 8 miles    
Events Rain    
T = Trace of Precipitation, MM = Missing Value Source: NWS Daily Summary

Daily Weather History Graph

Daily Weather History Graph

Search for Another Location

Airport or City:

Astronomy

Sep. 10, 2019 Rise Set
Actual Time 6:37 AM EDT 7:24 PM EDT
Civil Twilight 6:08 AM EDT 7:53 PM EDT
Nautical Twilight 5:33 AM EDT 8:27 PM EDT
Astronomical Twilight 4:57 AM EDT 9:03 PM EDT
Moon 6:07 PM EDT (9/10) 2:52 AM EDT (9/10)
Length of Visible Light 13h 45m
Length of Day
12h 46m
Waxing Gibbous, 89% of the Moon is Illuminated
Sep 10
Waxing Gibbous
Sep 14
Full
Sep 21
Last Quarter
Sep 28
New
Oct 5
First Quarter

Hourly Weather History & Observations

Time (EDT) Temp. Windchill Dew Point Humidity Pressure Visibility Wind Dir Wind Speed Gust Speed Precip Events Conditions
12:56 AM 46.0 °F - 44.1 °F 93% 30.32 in 10.0 mi Calm Calm - N/A   Clear
1:56 AM 44.1 °F 42.5 °F 42.1 °F 93% 30.33 in 10.0 mi East 3.5 mph - N/A   Clear
2:56 AM 42.1 °F - 41.0 °F 96% 30.32 in 10.0 mi Calm Calm - N/A   Clear
3:56 AM 42.1 °F - 41.0 °F 96% 30.32 in 10.0 mi Calm Calm - N/A   Clear
4:09 AM 41.0 °F - 39.9 °F 96% 30.32 in 0.8 mi Calm Calm - N/A   Clear
4:20 AM 39.9 °F - 39.0 °F 97% 30.33 in 2.0 mi Calm Calm - N/A   Clear
4:36 AM 39.9 °F - 39.0 °F 97% 30.33 in 5.0 mi Calm Calm - N/A   Clear
4:44 AM 39.9 °F 37.8 °F 39.0 °F 97% 30.32 in 1.8 mi ESE 3.5 mph - N/A   Clear
4:48 AM 39.9 °F - 39.0 °F 97% 30.32 in 3.0 mi Calm Calm - N/A   Clear
4:56 AM 39.9 °F - 37.9 °F 93% 30.33 in 8.0 mi Calm Calm - N/A   Clear
5:56 AM 39.9 °F 37.8 °F 37.9 °F 93% 30.31 in 8.0 mi East 3.5 mph - N/A   Clear
6:56 AM 41.0 °F - 41.0 °F 100% 30.32 in 9.0 mi Calm Calm - N/A   Clear
7:56 AM 46.0 °F 44.8 °F 44.1 °F 93% 30.32 in 10.0 mi East 3.5 mph - N/A   Clear
8:56 AM 54.0 °F - 50.0 °F 86% 30.31 in 10.0 mi ENE 3.5 mph - N/A   Clear
9:56 AM 63.0 °F - 51.1 °F 65% 30.30 in 10.0 mi Calm Calm - N/A   Clear
10:56 AM 64.9 °F - 51.1 °F 61% 30.27 in 10.0 mi Calm Calm - N/A   Clear
11:56 AM 70.0 °F - 55.9 °F 61% 30.24 in 10.0 mi North 6.9 mph - N/A   Scattered Clouds
12:56 PM 73.0 °F - 59.0 °F 61% 30.21 in 10.0 mi Variable 4.6 mph - N/A   Partly Cloudy
1:56 PM 73.0 °F - 60.1 °F 64% 30.20 in 10.0 mi West 6.9 mph - N/A   Clear
2:56 PM 72.0 °F - 61.0 °F 68% 30.18 in 10.0 mi West 6.9 mph - N/A   Mostly Cloudy
3:56 PM 73.0 °F - 55.9 °F 55% 30.17 in 10.0 mi SSW 6.9 mph - N/A   Overcast
4:27 PM 69.1 °F - 60.1 °F 73% 30.16 in 2.0 mi SSW 4.6 mph - 0.02 in Rain Light Rain
4:35 PM 69.1 °F - 61.0 °F 75% 30.17 in 10.0 mi WSW 3.5 mph - 0.02 in Rain Light Rain
4:40 PM 68.0 °F - 62.1 °F 81% 30.16 in 1.8 mi SSE 3.5 mph - 0.05 in Rain Heavy Rain
4:48 PM 68.0 °F - 62.1 °F 81% 30.17 in 3.0 mi SW 3.5 mph - 0.05 in Rain Light Rain
4:56 PM 66.9 °F - 62.1 °F 84% 30.17 in 10.0 mi South 3.5 mph - 0.05 in Rain Light Rain
5:17 PM 66.9 °F - 63.0 °F 87% 30.19 in 1.8 mi NW 4.6 mph - 0.03 in Rain Light Rain
5:28 PM 66.9 °F - 64.0 °F 90% 30.15 in 3.0 mi ESE 5.8 mph - 0.04 in Rain Light Rain
5:56 PM 66.9 °F - 64.0 °F 90% 30.15 in 9.0 mi ENE 3.5 mph - 0.04 in Rain Light Rain
7:56 PM 68.0 °F - 64.0 °F 87% 30.07 in 10.0 mi Calm Calm - 0.00 in   Overcast
8:56 PM 66.9 °F - 64.9 °F 93% 30.06 in 8.0 mi Calm Calm - 0.03 in   Mostly Cloudy
9:56 PM 72.0 °F - 66.0 °F 81% 30.05 in 10.0 mi South 6.9 mph - N/A   Overcast
10:56 PM 73.0 °F - 64.9 °F 76% 30.05 in 10.0 mi SSW 11.5 mph 17.3 mph N/A   Mostly Cloudy
11:56 PM 73.9 °F - 64.9 °F 73% 30.04 in 10.0 mi SSW 10.4 mph - N/A   Mostly Cloudy